TimeEDT,TemperatureF,Dew PointF,Humidity,Sea Level PressureIn,VisibilityMPH,Wind Direction,Wind SpeedMPH,Gust SpeedMPH,PrecipitationIn,Events,Conditions,WindDirDegrees,DateUTC
12:27 AM,60.8,60.8,100,30.19,2.5,NNE,8.1,-,N/A,,Overcast,30,2013-05-19 04:27:00
12:46 AM,60.8,59.0,94,30.19,1.8,NNE,8.1,-,N/A,,Overcast,30,2013-05-19 04:46:00
12:53 AM,61.0,60.1,97,30.18,2.0,NNE,6.9,-,N/A,,Overcast,30,2013-05-19 04:53:00
1:35 AM,60.8,60.8,100,30.17,3.0,NE,4.6,-,N/A,,Overcast,50,2013-05-19 05:35:00
2:53 AM,61.0,60.1,97,30.15,2.0,NE,6.9,-,N/A,,Overcast,40,2013-05-19 06:53:00
3:00 AM,60.8,60.8,100,30.16,1.2,NNE,8.1,-,N/A,,Overcast,30,2013-05-19 07:00:00
3:29 AM,60.8,59.0,94,30.15,2.0,NNE,8.1,-,N/A,,Overcast,30,2013-05-19 07:29:00
3:53 AM,60.1,59.0,96,30.13,2.0,NE,6.9,-,0.01,,Overcast,40,2013-05-19 07:53:00
4:02 AM,60.8,59.0,94,30.14,1.8,NE,5.8,-,N/A,,Overcast,40,2013-05-19 08:02:00
4:11 AM,60.8,59.0,94,30.15,2.0,NE,4.6,-,N/A,,Overcast,40,2013-05-19 08:11:00
4:53 AM,60.1,59.0,96,30.14,2.0,ENE,5.8,-,N/A,,Overcast,70,2013-05-19 08:53:00
5:00 AM,60.8,59.0,94,30.16,1.2,ENE,4.6,-,N/A,,Overcast,60,2013-05-19 09:00:00
5:18 AM,60.8,59.0,94,30.15,0.8,NE,4.6,-,N/A,,Mist,40,2013-05-19 09:18:00
6:10 AM,60.8,59.0,94,30.16,1.8,NE,4.6,-,N/A,,Overcast,40,2013-05-19 10:10:00
6:29 AM,59.0,59.0,100,30.16,0.8,NNE,4.6,-,0.00,Rain,Light Rain,30,2013-05-19 10:29:00
6:51 AM,59.0,57.2,94,30.16,2.5,NNE,4.6,-,0.00,,Overcast,20,2013-05-19 10:51:00
6:52 AM,59.0,57.9,96,30.16,3.0,NNE,4.6,-,0.00,,Overcast,20,2013-05-19 10:52:00
7:11 AM,59.0,59.0,100,30.17,2.0,NNE,6.9,-,N/A,,Overcast,30,2013-05-19 11:11:00
7:22 AM,60.8,57.2,88,30.17,4.0,NE,5.8,-,N/A,,Overcast,40,2013-05-19 11:22:00
7:37 AM,59.0,59.0,100,30.18,1.8,NNE,4.6,-,N/A,,Overcast,20,2013-05-19 11:37:00
8:17 AM,60.8,59.0,94,30.18,1.0,ENE,4.6,-,N/A,,Overcast,60,2013-05-19 12:17:00
8:53 AM,60.1,59.0,96,30.18,1.0,NE,4.6,-,N/A,,Overcast,50,2013-05-19 12:53:00
9:53 AM,61.0,59.0,93,30.19,1.5,East,5.8,-,N/A,,Overcast,80,2013-05-19 13:53:00
10:00 AM,60.8,59.0,94,30.19,5.0,ENE,4.6,-,N/A,,Overcast,60,2013-05-19 14:00:00
10:36 AM,60.8,60.8,100,30.20,2.0,Calm,Calm,-,N/A,,Overcast,0,2013-05-19 14:36:00
10:46 AM,60.8,60.8,100,30.20,1.5,NE,4.6,-,N/A,,Overcast,40,2013-05-19 14:46:00
10:53 AM,61.0,60.1,97,30.19,1.5,NNE,4.6,-,N/A,,Overcast,20,2013-05-19 14:53:00
11:03 AM,62.6,60.8,94,30.20,3.0,NE,4.6,-,N/A,,Overcast,40,2013-05-19 15:03:00
11:53 AM,62.1,60.1,93,30.19,2.0,NE,5.8,-,N/A,,Overcast,50,2013-05-19 15:53:00
12:53 PM,63.0,61.0,93,30.16,2.0,East,4.6,-,N/A,,Overcast,80,2013-05-19 16:53:00
1:00 PM,62.6,60.8,94,30.17,5.0,NE,5.8,-,N/A,,Overcast,50,2013-05-19 17:00:00
1:53 PM,63.0,61.0,93,30.15,2.0,Calm,Calm,-,N/A,,Overcast,0,2013-05-19 17:53:00
3:53 PM,64.9,62.1,90,30.12,2.0,NNE,3.5,-,N/A,,Overcast,20,2013-05-19 19:53:00
4:39 PM,66.2,62.6,88,30.12,2.5,Variable,3.5,-,N/A,,Overcast,0,2013-05-19 20:39:00
4:53 PM,66.9,63.0,87,30.10,2.5,NNW,4.6,-,N/A,,Overcast,340,2013-05-19 20:53:00
5:34 PM,66.2,62.6,88,30.11,4.0,Calm,Calm,-,N/A,,Overcast,0,2013-05-19 21:34:00
5:53 PM,66.9,63.0,87,30.09,4.0,North,3.5,-,N/A,,Overcast,350,2013-05-19 21:53:00
6:22 PM,66.2,62.6,88,30.09,3.0,Calm,Calm,-,N/A,,Mostly Cloudy,0,2013-05-19 22:22:00
6:53 PM,68.0,63.0,84,30.08,3.0,Calm,Calm,-,N/A,,Haze,0,2013-05-19 22:53:00
7:53 PM,66.9,63.0,87,30.08,6.0,NNW,3.5,-,N/A,,Overcast,340,2013-05-19 23:53:00
8:53 PM,66.9,64.0,90,30.09,4.0,SSE,5.8,-,0.00,,Overcast,150,2013-05-20 00:53:00
8:57 PM,66.2,62.6,88,30.10,6.0,Variable,4.6,-,N/A,,Overcast,0,2013-05-20 00:57:00
9:44 PM,66.2,64.4,94,30.12,4.0,Calm,Calm,-,0.04,Rain,Rain,0,2013-05-20 01:44:00
9:53 PM,66.0,64.0,93,30.11,4.0,Calm,Calm,-,0.06,Rain,Light Rain,0,2013-05-20 01:53:00
10:25 PM,66.2,64.4,94,30.12,6.0,Calm,Calm,-,0.00,,Overcast,0,2013-05-20 02:25:00
10:34 PM,66.2,64.4,94,30.13,6.0,Calm,Calm,-,0.00,,Overcast,0,2013-05-20 02:34:00
10:53 PM,64.9,64.0,97,30.12,7.0,Calm,Calm,-,0.00,,Mostly Cloudy,0,2013-05-20 02:53:00
11:09 PM,64.4,64.4,100,30.12,2.0,Calm,Calm,-,N/A,,Partly Cloudy,0,2013-05-20 03:09:00
11:13 PM,64.4,62.6,94,30.12,0.8,Calm,Calm,-,N/A,,Scattered Clouds,0,2013-05-20 03:13:00
11:31 PM,64.4,62.6,94,30.12,2.5,Calm,Calm,-,N/A,,Mostly Cloudy,0,2013-05-20 03:31:00
11:38 PM,64.4,64.4,100,30.12,5.0,Calm,Calm,-,N/A,,Overcast,0,2013-05-20 03:38:00
11:53 PM,64.9,64.0,97,30.11,5.0,Calm,Calm,-,N/A,,Overcast,0,2013-05-20 03:53:00